[[{"header":{"parameterUnit":"m.s-1","parameterCategory":1,"la1":30.2991,"la2":30.254,"lo1":-89.0895,"lo2":-89.0444,"dy":0.0017,"dx":0.0017,"nx":28,"ny":28,"refTime":"2024-10-20T03:00:00:Z","depth":0,"parameterNumber":2,"parameterNumberName":"U-component_of_WINDS"},"data":[0,0,0,0,0,0,0,0,0,0,0,0,0,0,0,0,0,0,0,0,0,0,0,0,0,0,0,0,0,0,0,0,0,0,0,0,0,0,0,0,0,0,0,0,0,0,0,0,0,0,0,0,0,0,0,0,0,0,-3.3411,-3.3411,0,-3.34,-3.3399,-3.3399,-3.3311,-3.3309,-3.3307,-3.3304,-3.3296,-3.3297,-3.3299,0,0,0,0,0,0,0,0,0,0,0,0,0,-3.336,-3.3361,-3.3411,-3.3411,-3.3411,-3.34,-3.3399,-3.3399,-3.3311,-3.3309,-3.3306,-3.3303,-3.3295,-3.3297,-3.3299,0,0,0,0,0,0,0,0,0,0,0,0,0,-3.3369,-3.3362,-3.3411,-3.3365,-3.3361,-3.34,-3.3399,-3.3399,-3.3312,-3.3309,-3.3305,-3.3302,-3.3294,-3.3297,-3.33,-3.3382,0,0,-3.3308,-3.3309,0,0,0,0,0,0,0,0,-3.3368,-3.3371,-3.3372,-3.3369,-3.3364,-3.3353,-3.3378,-3.3394,-3.3313,-3.3331,-3.3304,-3.3301,-3.3318,-3.3318,-3.3323,-3.3382,-3.3381,-3.3308,-3.331,-3.3311,-3.3312,0,0,0,0,0,0,0,-3.3368,-3.3371,-3.3406,-3.3372,-3.3367,-3.3347,-3.3344,-3.3381,-3.3343,-3.3329,-3.3322,-3.3322,-3.3315,-3.3321,-3.3323,-3.3381,-3.3308,-3.331,-3.3312,-3.3313,-3.3509,-3.3513,0,0,0,0,0,0,-3.3373,-3.3371,-3.3407,-3.3406,-3.3358,-3.335,-3.3348,-3.336,-3.3342,-3.3336,-3.3325,-3.3318,-3.3318,-3.3319,-3.3322,-3.3419,-3.3311,-3.3313,-3.3315,-3.3506,-3.351,-3.3514,0,0,0,0,0,0,-3.3372,-3.3377,-3.3407,-3.3387,-3.3389,-3.3355,-3.3369,-3.3362,-3.3368,-3.3339,-3.3332,-3.3338,-3.3315,-3.3318,-3.3368,-3.3418,-3.3315,-3.3317,-3.3501,-3.3507,-3.3512,-3.3613,0,0,0,0,0,0,-3.3371,-3.3378,-3.3407,-3.3388,-3.339,-3.3453,-3.3372,-3.3364,-3.3372,-3.3363,-3.335,-3.3344,-3.3313,-3.3365,-3.3371,-3.3419,-3.3319,-3.3497,-3.3504,-3.351,-3.3606,-3.3622,-3.3635,0,0,0,0,0,-3.337,-3.3436,-3.3409,-3.3414,-3.3427,-3.3456,-3.3457,-3.3419,-3.3376,-3.3407,-3.3389,-3.3345,-3.3411,-3.337,-3.3377,-3.3427,-3.3494,-3.3502,-3.351,-3.3599,-3.3618,-3.3635,0,0,0,0,0,0,-3.3463,-3.3433,-3.3403,-3.3465,-3.3464,-3.3441,-3.3478,-3.3441,-3.3452,-3.3443,-3.3397,-3.3394,-3.3452,-3.3444,-3.34,-3.3507,-3.3445,-3.3454,-3.351,-3.3529,-3.3543,-3.3545,-3.3322,0,0,0,0,0,-3.3491,-3.3516,-3.3488,-3.3546,-3.3547,-3.3513,-3.3524,-3.3495,-3.3492,-3.3491,-3.3477,-3.3477,-3.3498,-3.3512,-3.353,-3.3604,-3.3601,-3.3641,-3.3656,-3.3669,-3.3678,-3.3719,-3.3738,-3.354,-3.354,-3.354,0,0,-3.3548,-3.3535,-3.3554,-3.3564,-3.356,-3.3589,-3.3513,-3.3546,-3.3567,-3.3496,-3.3543,-3.3533,-3.353,-3.3593,-3.362,-3.3588,-3.3732,-3.3679,-3.3689,-3.3692,-3.373,-3.3748,-3.3765,-3.3546,-3.3545,-3.3544,0,0,-3.3668,-3.366,-3.3708,-3.3705,-3.3699,-3.3677,-3.3689,-3.3672,-3.3662,-3.3708,-3.3657,-3.3682,-3.3718,-3.3719,-3.3724,-3.3846,-3.3807,-3.3853,-3.3932,-3.3973,-3.3988,-3.4002,-3.4048,-3.4065,-3.3863,-3.3863,-3.3863,0,-3.3741,-3.3781,-3.3738,-3.3774,-3.3782,-3.3719,-3.3768,-3.3768,-3.3769,-3.3776,-3.374,-3.3786,-3.3779,-3.3843,-3.3873,-3.3878,-3.3892,-3.3855,-3.3989,-3.4003,-3.4015,-3.4058,-3.4076,-3.3869,-3.3868,-3.3867,-3.3867,0,-3.3872,-3.39,-3.394,-3.3942,-3.3954,-3.3997,-3.3962,-3.3979,-3.3949,-3.3931,-3.3981,-3.397,-3.3986,-3.3998,-3.3969,-3.4059,-3.404,-3.3997,-3.3934,-3.404,-3.4081,-3.4097,-3.3877,-3.3875,-3.3873,-3.3872,0,0,-3.405,-3.4029,-3.4044,-3.4046,-3.4036,-3.4058,-3.4099,-3.4113,-3.413,-3.4133,-3.4168,-3.4201,-3.4162,-3.4168,-3.4139,-3.4175,-3.4276,-3.4128,-3.4127,-3.4158,-3.4377,-3.4411,-3.443,-3.4249,-3.4252,-3.4254,-3.4378,0,-3.4167,-3.4235,-3.4199,-3.4273,-3.43,-3.4242,-3.4278,-3.4277,-3.4261,-3.4283,-3.4266,-3.4291,-3.4236,-3.424,-3.4273,-3.4257,-3.432,-3.4247,-3.4283,-3.4285,-3.4288,-3.4451,-3.4486,-3.4603,-3.4393,-3.4396,-3.4398,0,-3.4313,-3.4322,-3.4399,-3.4386,-3.4396,-3.4429,-3.4441,-3.4462,-3.446,-3.4447,-3.4454,-3.4417,-3.4459,-3.4395,-3.4453,-3.4405,-3.4417,-3.4412,-3.4416,-3.4419,-3.4349,-3.4461,-3.4639,-3.4658,-3.4422,-3.442,-3.4418,0,-3.4439,-3.447,-3.4521,-3.4524,-3.4509,-3.4534,-3.4529,-3.4524,-3.4536,-3.4546,-3.4554,-3.457,-3.4579,-3.4593,-3.4562,-3.4518,-3.4625,-3.4558,-3.4617,-3.4619,-3.4644,-3.4643,-3.4829,-3.4649,-3.4648,-3.4648,-3.4648,0,-3.4574,-3.4624,-3.4578,-3.4609,-3.4664,-3.4622,-3.4678,-3.4667,-3.4663,-3.4693,-3.4643,-3.4672,-3.4628,-3.4654,-3.463,-3.4684,-3.4687,-3.4679,-3.4673,-3.4685,-3.4687,-3.4694,-3.4686,-3.4653,-3.4652,-3.4651,-3.465,0,-3.4724,-3.4695,-3.4747,-3.4729,-3.4725,-3.4767,-3.4752,-3.4782,-3.4763,-3.4801,-3.4808,-3.4779,-3.4807,-3.4777,-3.4802,-3.4786,-3.4859,-3.4839,-3.486,-3.4855,-3.4917,-3.4913,-3.5116,-3.5142,-3.4943,-3.4945,-3.4947,0,-3.4814,-3.4851,-3.4838,-3.4854,-3.4852,-3.4878,-3.489,-3.4851,-3.4866,-3.4868,-3.4898,-3.4921,-3.4938,-3.4985,-3.4968,-3.4988,-3.4969,-3.5039,-3.4972,-3.4984,-3.4974,-3.4973,-3.4978,-3.5054,-3.5056,-3.5058,-3.506,0,-3.4977,-3.4961,-3.498,-3.4995,-3.5011,-3.5021,-3.5027,-3.5043,-3.5002,-3.5022,-3.505,-3.5063,-3.5089,-3.5114,-3.5129,-3.5126,-3.5088,-3.5081,-3.5096,-3.511,-3.5122,-3.5119,-3.49,-3.5077,-3.5075,-3.5074,-3.5073,-3.5072,-3.5101,-3.5133,-3.5129,-3.5152,-3.5153,-3.516,-3.5188,-3.5172,-3.5194,-3.5213,-3.5188,-3.5223,-3.5223,-3.5239,-3.524,-3.5268,-3.5239,-3.526,-3.5266,-3.5272,-3.5283,-3.5115,-3.5271,-3.527,-3.5269,-3.5269,-3.5269,0,-3.5264,-3.5259,-3.5281,-3.5291,-3.5311,-3.5271,-3.5276,-3.5296,-3.5327,-3.5329,-3.5347,-3.538,-3.5405,-3.5389,-3.5411,-3.5436,-3.542,-3.5444,-3.5442,-3.5443,-3.5307,-3.5293,-3.5457,-3.5457,-3.5457,-3.5457,-3.5457,-3.5457,-3.5351,-3.5403,-3.5387,-3.5439,-3.5433,-3.5467,-3.5474,-3.5481,-3.5483,-3.5522,-3.5542,-3.5532,-3.5528,-3.5549,-3.557,-3.5565,-3.5577,-3.5608,-3.5597,-3.547,-3.5452,-3.5434,-3.5421,-3.561,-3.561,-3.5731,-3.5732,-3.5733]},{"header":{"parameterUnit":"m.s-1","parameterCategory":1,"la1":30.2991,"la2":30.254,"lo1":-89.0895,"lo2":-89.0444,"dy":0.0017,"dx":0.0017,"nx":28,"ny":28,"refTime":"2024-10-20T03:00:00:Z","depth":0,"parameterNumber":3,"parameterNumberName":"V-component_of_WINDS"},"data":[0,0,0,0,0,0,0,0,0,0,0,0,0,0,0,0,0,0,0,0,0,0,0,0,0,0,0,0,0,0,0,0,0,0,0,0,0,0,0,0,0,0,0,0,0,0,0,0,0,0,0,0,0,0,0,0,0,0,-1.1415,-1.1416,0,-1.1444,-1.1444,-1.1444,-1.1427,-1.1426,-1.1425,-1.1424,-1.1454,-1.1455,-1.1457,0,0,0,0,0,0,0,0,0,0,0,0,0,-1.1347,-1.1348,-1.1415,-1.1416,-1.1416,-1.1444,-1.1444,-1.1444,-1.1427,-1.1426,-1.1425,-1.1424,-1.1453,-1.1455,-1.1457,0,0,0,0,0,0,0,0,0,0,0,0,0,-1.1376,-1.1348,-1.1415,-1.1411,-1.1411,-1.1443,-1.1444,-1.1444,-1.1427,-1.1426,-1.1425,-1.1424,-1.1453,-1.1455,-1.1457,-1.1497,0,0,-1.1464,-1.1465,0,0,0,0,0,0,0,0,-1.1374,-1.1378,-1.1411,-1.1411,-1.1411,-1.143,-1.1431,-1.1462,-1.1427,-1.1421,-1.1424,-1.1423,-1.1447,-1.145,-1.1458,-1.1498,-1.1499,-1.1465,-1.1466,-1.1467,-1.1468,0,0,0,0,0,0,0,-1.1372,-1.1377,-1.1427,-1.1411,-1.1411,-1.1407,-1.141,-1.1436,-1.1441,-1.1421,-1.142,-1.1424,-1.1447,-1.1456,-1.1458,-1.15,-1.1465,-1.1467,-1.1468,-1.1469,-1.1574,-1.1576,0,0,0,0,0,0,-1.1371,-1.1376,-1.1426,-1.1427,-1.1389,-1.141,-1.1413,-1.1425,-1.144,-1.1441,-1.1425,-1.1423,-1.1452,-1.1456,-1.1459,-1.1508,-1.1467,-1.1469,-1.1471,-1.1573,-1.1575,-1.1576,0,0,0,0,0,0,-1.1369,-1.1375,-1.1424,-1.1401,-1.1407,-1.1412,-1.1427,-1.1427,-1.1435,-1.1443,-1.1444,-1.1433,-1.1451,-1.1456,-1.1488,-1.1508,-1.147,-1.1472,-1.1571,-1.1573,-1.1575,-1.1604,0,0,0,0,0,0,-1.1367,-1.1375,-1.139,-1.1402,-1.1408,-1.1452,-1.1428,-1.1428,-1.1439,-1.1437,-1.1451,-1.1452,-1.1451,-1.1484,-1.149,-1.1511,-1.1474,-1.157,-1.1572,-1.1575,-1.1601,-1.1607,-1.1611,0,0,0,0,0,-1.1365,-1.1396,-1.1391,-1.1397,-1.1427,-1.1454,-1.1457,-1.1456,-1.1441,-1.1457,-1.1461,-1.1451,-1.1505,-1.1488,-1.1494,-1.1516,-1.1568,-1.1571,-1.1575,-1.1599,-1.1605,-1.1611,0,0,0,0,0,0,-1.1387,-1.1398,-1.1392,-1.1428,-1.144,-1.1451,-1.147,-1.1463,-1.1479,-1.1476,-1.1473,-1.1476,-1.151,-1.1515,-1.1496,-1.1555,-1.1534,-1.1539,-1.1551,-1.1557,-1.1562,-1.1561,-1.1476,0,0,0,0,0,-1.1396,-1.1416,-1.1425,-1.1456,-1.1462,-1.1465,-1.1476,-1.1474,-1.1486,-1.1491,-1.1498,-1.1511,-1.1531,-1.1544,-1.1562,-1.1601,-1.1604,-1.1619,-1.1624,-1.1628,-1.1633,-1.1655,-1.1663,-1.1586,-1.1586,-1.1586,0,0,-1.1415,-1.1424,-1.1437,-1.1461,-1.147,-1.1491,-1.147,-1.1493,-1.1509,-1.1495,-1.1526,-1.1531,-1.1545,-1.1581,-1.1597,-1.1587,-1.1654,-1.1632,-1.1636,-1.1638,-1.1659,-1.1667,-1.1673,-1.1589,-1.1588,-1.1588,0,0,-1.1462,-1.1469,-1.1497,-1.1506,-1.152,-1.1522,-1.1528,-1.154,-1.1543,-1.1574,-1.1564,-1.1583,-1.1616,-1.1627,-1.1637,-1.1687,-1.1679,-1.1692,-1.172,-1.1742,-1.1748,-1.1753,-1.1773,-1.178,-1.1697,-1.1697,-1.1697,0,-1.1484,-1.1516,-1.1512,-1.1537,-1.1548,-1.1535,-1.1564,-1.1573,-1.1592,-1.1601,-1.1588,-1.1631,-1.1639,-1.1678,-1.169,-1.1698,-1.1706,-1.1692,-1.1747,-1.1753,-1.1758,-1.1776,-1.1784,-1.1698,-1.1698,-1.1698,-1.1698,0,-1.1544,-1.1566,-1.1587,-1.1606,-1.1619,-1.1645,-1.1646,-1.1659,-1.1655,-1.1658,-1.169,-1.1699,-1.172,-1.1728,-1.1724,-1.1767,-1.176,-1.1748,-1.1727,-1.1767,-1.1784,-1.1791,-1.1701,-1.17,-1.17,-1.1699,0,0,-1.1607,-1.1623,-1.1631,-1.164,-1.1654,-1.1671,-1.1697,-1.1717,-1.173,-1.1742,-1.1765,-1.1793,-1.1782,-1.1793,-1.179,-1.1809,-1.185,-1.1794,-1.1795,-1.1806,-1.1899,-1.191,-1.1919,-1.1844,-1.1845,-1.1846,-1.1899,0,-1.1656,-1.1701,-1.1698,-1.1741,-1.1762,-1.175,-1.1772,-1.1784,-1.1787,-1.1805,-1.1808,-1.1829,-1.1812,-1.1819,-1.1837,-1.1841,-1.1869,-1.1837,-1.1866,-1.1867,-1.1866,-1.1927,-1.1939,-1.1988,-1.1905,-1.1907,-1.1907,0,-1.1719,-1.1735,-1.178,-1.1792,-1.1801,-1.1821,-1.1839,-1.1857,-1.1869,-1.187,-1.1882,-1.1876,-1.1903,-1.188,-1.1917,-1.1895,-1.1906,-1.191,-1.1912,-1.1917,-1.1891,-1.1936,-1.2004,-1.2012,-1.1918,-1.1917,-1.1916,0,-1.1763,-1.1796,-1.1827,-1.1835,-1.1848,-1.1863,-1.187,-1.1881,-1.1893,-1.1909,-1.1917,-1.1936,-1.1946,-1.1961,-1.196,-1.1943,-1.1998,-1.1975,-1.2001,-1.2001,-1.2015,-1.2015,-1.2088,-1.2018,-1.2018,-1.2018,-1.2018,0,-1.182,-1.1848,-1.1847,-1.1867,-1.1899,-1.1894,-1.1926,-1.1931,-1.1941,-1.1961,-1.1951,-1.1971,-1.1967,-1.1987,-1.1986,-1.2018,-1.2022,-1.2024,-1.2024,-1.2027,-1.2027,-1.2036,-1.2033,-1.202,-1.202,-1.2019,-1.2019,0,-1.1875,-1.1876,-1.191,-1.1919,-1.1923,-1.1946,-1.1954,-1.1973,-1.1975,-1.2001,-1.2007,-1.201,-1.2032,-1.2032,-1.2058,-1.2057,-1.2097,-1.2092,-1.2093,-1.2093,-1.212,-1.2118,-1.2204,-1.2215,-1.2136,-1.2137,-1.2137,0,-1.1913,-1.1934,-1.1947,-1.196,-1.1967,-1.1988,-1.2001,-1.1997,-1.2011,-1.2027,-1.2044,-1.2065,-1.2083,-1.2119,-1.2124,-1.2144,-1.214,-1.2169,-1.2143,-1.2145,-1.2143,-1.2143,-1.2146,-1.2175,-1.2175,-1.2176,-1.2177,0,-1.1979,-1.1978,-1.1997,-1.2016,-1.2031,-1.2046,-1.2059,-1.2071,-1.2068,-1.2084,-1.2107,-1.2121,-1.2147,-1.2169,-1.2188,-1.2194,-1.2186,-1.2184,-1.2192,-1.2196,-1.2197,-1.2199,-1.2109,-1.2183,-1.2182,-1.2182,-1.2182,-1.2181,-1.2028,-1.2048,-1.206,-1.2081,-1.2091,-1.2103,-1.2122,-1.2126,-1.2145,-1.2166,-1.2162,-1.2189,-1.22,-1.2225,-1.2233,-1.2254,-1.2244,-1.2254,-1.2258,-1.2261,-1.2265,-1.2191,-1.2257,-1.2257,-1.2257,-1.2256,-1.2256,0,-1.2097,-1.2103,-1.2123,-1.2142,-1.2159,-1.2148,-1.2163,-1.2178,-1.2201,-1.2213,-1.223,-1.2257,-1.2278,-1.2284,-1.2304,-1.232,-1.2316,-1.2326,-1.2326,-1.2328,-1.2271,-1.2264,-1.2328,-1.2328,-1.2328,-1.2328,-1.2328,-1.2328,-1.2134,-1.2167,-1.2167,-1.2205,-1.2211,-1.2237,-1.2246,-1.2258,-1.2268,-1.2298,-1.2316,-1.2319,-1.2329,-1.235,-1.2369,-1.237,-1.2379,-1.2391,-1.239,-1.2338,-1.2331,-1.2325,-1.2318,-1.2392,-1.2392,-1.2445,-1.2446,-1.2446]}]]